Regional Weather Roundup
Issued by NWS

Home | Current Version | Previous Version | Graphics & Text | Print | Product List | Glossary On
Versions: 1 2 3 4 5 6 7 8 9 10 11 12 13 14 15 16 17 18 19 20 21 22 23 24 25 26 27 28 29 30 31 32 33 34 35 36 37 38 39 40 41 42 43 44 45 46 47 48 49 50
000
ASUS43 KDTX 261301
RWRMI
MICHIGAN HOURLY REGIONAL WEATHER ROUNDUP
NATIONAL WEATHER SERVICE DETROIT/PONTIAC MI
900 AM EDT THU APR 26 2018

NOTE: "FAIR" INDICATES FEW OR NO CLOUDS BELOW 12,000 FEET WITH NO
SIGNIFICANT WEATHER AND/OR OBSTRUCTION TO VISIBILITY.

MIZ047>049-052>055-059>063-066>070-074>076-081>083-261400-
SOUTHEAST LOWER MICHIGAN

CITY           SKY/WX    TMP DP  RH WIND       PRES   REMARKS
ADRIAN         CLOUDY    42  39  89 CALM      29.97R
ALMA           FAIR      43  34  71 W7        29.96S
ANN ARBOR      FOG       40  40 100 SW6       29.96R VSB 1/4
BAD AXE        FAIR      43  31  63 W5        29.94S
CARO           FAIR      41  33  75 W3        29.94S
DETROIT CITY   FAIR      45  35  68 NW7       29.96R
DETROIT        FAIR      46  40  79 SW7       29.96S HAZE
FLINT          FAIR      41  34  76 W5        29.96R
GROSSE ILE     FAIR      44  41  88 W5        29.96R
HILLSDALE      CLOUDY    41  37  87 CALM      29.94S FOG
HOWELL         FAIR      43  38  83 W6        29.96R

CITY           SKY/WX    TMP DP  RH WIND       PRES   REMARKS
JACKSON        FAIR      42  40  92 SW5       29.96R
LAMBERTVILLE   CLOUDY    43  40  91 CALM      29.96S FOG
LANSING        FAIR      44  36  73 CALM      29.97R
LAPEER         FAIR      41  35  78 W5        29.95S
MASON          FAIR      44  38  79 CALM      29.96S
MONROE         FAIR      42  40  93 W5        29.96R
PONTIAC        FAIR      43  38  82 NW7       29.94S
PORT HOPE        N/A     40  30  67 W6        29.91S
PORT HURON     FAIR      41  34  75 CALM      29.95S
TRI CITIES     FAIR      41  32  70 W8        29.96R
MIDLAND        FAIR      39  32  76 W3        29.95S
TROY           FAIR      45  37  71 W7        29.97S
SAGINAW HB     FAIR      41  32  70 W8        29.95S
$$
MIZ043>046-050>051-056>058-064>065-071>073-077>080-261400-
SOUTHWEST LOWER MICHIGAN

CITY           SKY/WX    TMP DP  RH WIND       PRES   REMARKS
BATTLE CREEK   PTSUNNY   43  38  82 CALM      29.96R
BENTON HARBOR  FAIR      43  36  76 CALM      29.97R
BIG RAPIDS     FAIR      36  31  83 E3        29.94S
COLDWATER      CLOUDY    42  42 100 CALM      29.96R FOG
FREMONT        FAIR      39  30  68 CALM      29.96S
HOLLAND        FAIR      44  34  67 CALM      29.97R
GRAND RAPIDS   PTSUNNY   45  36  70 CALM      29.96S
IONIA          FAIR      44  34  69 W3        29.96R
KALAMAZOO      FAIR      45  37  73 CALM      29.97R
LUDINGTON      FAIR      40  34  77 SW6       29.95S
MARSHALL       CLOUDY    41  39  92 CALM      29.96R
MOUNT PLEASANT FAIR      42  33  71 W6        29.95S
MUSKEGON       FAIR      44  33  65 CALM      29.98R
SOUTH HAVEN    FAIR      42  35  75 CALM      29.97S
$$
MIZ016>042-261400-
NORTHERN LOWER MICHIGAN

CITY           SKY/WX    TMP DP  RH WIND       PRES   REMARKS
ALPENA         FAIR      39  28  64 VRB3      29.92S
BEAVER ISLAND  FAIR      41  30  63 SW9       29.91S
BELLAIRE       FAIR      34  30  85 SW3       29.93
CADILLAC       FAIR      38  31  76 SW5       29.91S WCI  34
CHARLEVOIX     FAIR      35  31  84 CALM      29.94S
FRANKFORT      FAIR      40  32  74 SW6       29.93S
GAYLORD        FAIR      33  29  85 CALM      29.89F
HARBOR SPRINGS FAIR      34  30  84 CALM      29.92R
HOUGHTON LAKE  FAIR      37  30  75 W6        29.93R WCI  32
MANISTEE       FAIR      39  35  86 CALM      29.95S
OSCODA         FAIR      41  27  57 N5        29.92R
PELLSTON       FAIR      36  28  73 CALM      29.92R
ROGERS CITY    FAIR      39  26  59 W6        29.92S WCI  35
TRAVERSE CITY  FAIR      41  29  62 SW6       29.92F
$$
MIZ007>008-015-261400-
EASTERN UPPER MICHIGAN

CITY           SKY/WX    TMP DP  RH WIND       PRES   REMARKS
KINROSS        FAIR      36  24  62 SW5       29.89F WCI  32
MACKINAC ISLAN FAIR      37  29  73 SW6       29.91R WCI  33
NEWBERRY       FAIR      36  28  75 SW9       29.87S WCI  29
MUNISING         N/A     41  28  60 S15       29.84F
$$
MIZ004>006-011>014-085-261400-
CENTRAL UPPER MICHIGAN

CITY           SKY/WX    TMP DP  RH WIND       PRES   REMARKS
MANISTIQUE     FAIR      39  32  76 S7        29.88F WCI  34
ESCANABA       FAIR      39  29  67 S5        29.88F
MENOMINEE      FAIR      41  32  70 W3        29.91
SAWYER-GWINN   SUNNY     32  27  80 S5        29.85S WCI  27
$$
MIZ001>003-009>011-084-261400-
WESTERN UPPER MICHIGAN

CITY           SKY/WX    TMP DP  RH WIND       PRES   REMARKS
IRON MOUNTAIN  FAIR      37  28  70 CALM      29.84F
HOUGHTON       FAIR      47  23  38 W10       29.79S
COPPER HARBOR    N/A     48  22  35 VRB6      29.78S
IRONWOOD       FAIR      44  28  53 SW10      29.83S
$$

ABBREVIATIONS USED IN REMARKS
   TC - TEMPERATURE IN CELSIUS
  WCI - WIND CHILL INDEX
   HX - HEAT INDEX
  VSB - VISIBILITY





USA.gov is the U.S. government's official web portal to all federal, state and local government web resources and services.